Location: Buchberg
(46.9333°N, 15.8500°E)
Time: 04:10:15
(UTC+00:00)

Resurs 1-4 Rocket - Pass Details

Date: 14 July 2020
Orbit: 800 x 814 km, 98.6° (Epoch: 11 August)

Event Time Altitude Azimuth Distance (km) Brightness Sun altitude
Rises 01:21:24 0° 9° (N) 3,349 6.6 -14.6°
Reaches altitude 10° 01:23:50 10° 3° (N) 2,412 5.5 -14.4°
Maximum altitude 01:28:51 44° 293° (WNW) 1,111 2.7 -13.9°
Enters shadow 01:32:21 19° 229° (SW) 1,853 3.4 -13.6°
